Regional Weather Roundup
Issued by NWS

Home | Current Version | Previous Version | Graphics & Text | Print | Product List | Glossary On
Versions: 1 2 3 4 5 6 7 8 9 10 11 12 13 14 15 16 17 18 19 20 21 22 23 24 25 26 27 28 29 30 31 32 33 34 35 36 37 38 39 40 41 42 43 44 45 46 47 48 49 50
000
ASUS43 KMKX 191421
RWRWI

WISCONSIN REGIONAL WEATHER ROUNDUP
NATIONAL WEATHER SERVICE MILWAUKEE/SULLIVAN WI
900 AM CDT TUE SEP 19 2017

NOTE: "FAIR" INDICATES FEW OR NO CLOUDS BELOW 12,000 FEET WITH NO
SIGNIFICANT WEATHER AND/OR OBSTRUCTIONS TO VISIBILITY.

WIZ001-002-006>008-014>016-023>028-191500-
NORTHWEST WISCONSIN

CITY           SKY/WX    TMP DP  RH WIND       PRES   REMARKS
SUPERIOR ARPT  CLOUDY    60  57  90 CALM      29.95S
ASHLAND        CLOUDY    61  54  77 CALM      29.98S
HAYWARD        CLOUDY    59  53  80 SE6       29.97F
SIREN          MOSUNNY   62  56  83 S9        29.95R
CUMBERLAND     CLOUDY    57  54  88 SE9       29.98R
RICE LAKE      MOSUNNY   60  56  86 SE12      29.99R
CHETEK         CLOUDY    59  56  90 SE6       29.99R
LADYSMITH      MOSUNNY   60  55  82 SE7       30.01R
EAU CLAIRE     PTSUNNY   59  56  89 SE6       29.97S
MENOMONIE      CLOUDY    62  58  88 E7        29.97F
NEW RICHMOND   PTSUNNY   62  58  89 SE8       29.94F
OSCEOLA        CLOUDY    62  62 100 SE9       29.96F
$$

WIZ003>005-009-010-017-018-191500-
NORTH CENTRAL WISCONSIN

CITY           SKY/WX    TMP DP  RH WIND       PRES   REMARKS
MANITOWISH WTR PTSUNNY   58  56  94 E6        30.02F
ARBOR VITAE    SUNNY     59  55  84 SE7       30.03S
WOODRUFF       SUNNY     59  55  84 SE7       30.03S
RHINELANDER    MOSUNNY   58  56  93 E6        30.04S
EAGLE RIVER    CLOUDY    59  53  83 SE6       30.03S
LAND O LAKES   CLOUDY    59  55  84 SE9       30.05S
PHILLIPS       CLOUDY    56  54  91 SE7       30.00F
TOMAHAWK         N/A     58  53  86 E5        30.03F
MEDFORD        CLOUDY    56  53  91 E6        30.01S
MERRILL        PTSUNNY   57  55  94 CALM      30.03F
$$

WIZ029-030-035-036-043>047-191500-
CENTRAL WISCONSIN

CITY           SKY/WX    TMP DP  RH WIND       PRES   REMARKS
WAUSAU         CLOUDY    59  56  89 CALM      30.01S
MOSINEE        MOSUNNY   57  57 100 SE5       30.03R
MARSHFIELD     CLOUDY    58  54  86 E7        30.00S
STEVENS POINT  SUNNY     60  56  88 E8        30.02S
WAUPACA        MOSUNNY   63  58  84 CALM      30.01S
WAUTOMA        MOSUNNY   63  57  81 E8        30.00F
WISC RAPIDS    SUNNY     63  56  78 E10       30.01S
CAMP DOUGLAS   MOSUNNY   63  57  82 CALM      29.99S
$$

WIZ011>013-019>022-031-037>040-048>050-191500-
NORTHEAST WISCONSIN

CITY           SKY/WX    TMP DP  RH WIND       PRES   REMARKS
ANTIGO         CLOUDY    57  56  94 E6        30.04S
SHAWANO        CLOUDY    63  59  86 E7        30.02S
OCONTO         CLOUDY    64  60  85 SE8       30.02S
STURGEON BAY   CLOUDY    63  59  87 E9        30.03S
GREEN BAY      PTSUNNY   67  63  87 E6        30.01F
MANITOWOC      CLOUDY    64  62  93 E8        30.01S
APPLETON       PTSUNNY   64  57  77 E6        30.00S
CLINTONVILLE   CLOUDY    61  55  82 NE3       30.02S
OSHKOSH        SUNNY     65  60  84 E7        30.00S
$$

WIZ032>034-041-042-053>061-191500-
SOUTHWEST WISCONSIN

CITY           SKY/WX    TMP DP  RH WIND       PRES   REMARKS
LA CROSSE      SUNNY     63  57  81 E7        29.96F
SPARTA         MOSUNNY   60  56  87 E3        29.99R
VIROQUA        SUNNY     61  58  92 SE8       29.98S
BOSCOBEL       MOSUNNY   65  58  78 CALM      29.97F
PRAIRIE DU CHI MOSUNNY   62  56  82 SE3       29.96S
PLATTEVILLE    SUNNY     63  60  91 S3        29.97F
$$

WIZ056-057-062-063-064-067-068-191500-
SOUTH CENTRAL WISCONSIN

CITY           SKY/WX    TMP DP  RH WIND       PRES   REMARKS
REEDSBURG      SUNNY     61  57  88 E5        29.98S
BARABOO/DELLS  SUNNY     61  55  81 E6        29.99R
LONE ROCK      SUNNY     64  59  83 CALM      29.98R
MINERAL POINT  SUNNY     64  61  88 CALM      29.98R
MADISON        MOSUNNY   64  57  78 CALM      29.98S
MIDDLETON      SUNNY     64  58  82 CALM      29.99S
WATERTOWN      SUNNY     65  61  87 E5        29.98S
MONROE         MOSUNNY   64  59  82 CALM      29.98R
JANESVILLE     MOSUNNY   66  64  94 E8        29.97R
$$

WIZ051-052-058>065-066-070>072-191500-
SOUTHEAST WISCONSIN

CITY           SKY/WX    TMP DP  RH WIND       PRES   REMARKS
MILWAUKEE      CLOUDY    69  66  90 E9        29.98R
WAUKESHA       MOSUNNY   63  61  94 NE7       30.00R
MILWAUKEE/TIMM PTSUNNY   68  61  77 E3        30.00R
RACINE         CLOUDY    69  66  90 CALM      29.99R
BURLINGTON     PTSUNNY   64  64 100 NE3       29.98R
KENOSHA        CLOUDY    68  64  87 N3        29.97R
FOND DU LAC    SUNNY     65  58  78 E6        30.00S
SHEBOYGAN      CLOUDY    65  64  97 NE3       30.00S
WEST BEND        N/A     61  61 100 NE3       30.00S
JUNEAU         SUNNY     62  58  87 NE3       30.01R
$$

LSZ147-162-191500-
LAKE SUPERIOR

STATION/POSITION TIME  TEMP    WIND        PRES    WAVE
                       AIR SEA DIR/SP/G            HT/PER
                 (UTC) (F)     (DEG/KT/KT) (MB)    (FT/S)
W MID LAKE BUOY  1350   57 55  140/ 10/ 12 1015.8S   1/ 4
DEVILS ISLAND    1400   59     120/  9/ 11 1015.0F
SAXON HARBOR     1330   61     180/  5/ 10 1014.6S
$$

LMZ867-665-643>646-191500-
LAKE MICHIGAN

STATION/POSITION TIME  TEMP    WIND        PRES    WAVE
                       AIR SEA DIR/SP/G            HT/PER
                 (UTC) (F)     (DEG/KT/KT) (MB)    (FT/S)
S GREEN BAY BUOY 1400   64 66  110/ 10/ 12 1016.2S
N MID LAKE BUOY  1350   63 64  120/ 12/ 14 1017.8R   2/ 4
NORTHPORT PIER   1340   64     120/ 10/ 15 1016.9S
KEWAUNEE LAKESHO 1354   60      70/  3/  6 1015.6S
PORT WASHINGTON  1330   67     100/  7/  9 1016.3S
ATWATER BUOY     1309   68 67   80/  8/ 10 1014.9
MILWAUKEE LAKESH 1400   68      90/  7/  8   N/A
S MID LAKE BUOY  1350   67 68   70/  8/ 10 1014.7R   2/ 4
KENOSHA   LAKESH 1400   68     150/  4/  6 1014.6
$$

TC  - TEMPERATURE IN CELSIUS
VSB - VISIBILITY IN STATUTE MILES
WCI - WIND CHILL INDEX
HX  - HEAT INDEX





USA.gov is the U.S. government's official web portal to all federal, state and local government web resources and services.